Date String (YYYY-MM-DD hh:mm:ss) UTC,Instrument flags,Ambient pressure (hPa),Sample flow (lpm),Bypass flow (lpm),Sample temperature (°C),Ambient temperature (°C),ASC tube jacket temperature (°C),LED temperature (°C),Box temperature (°C),Sample RH (%),Span deviation,Mass concentration (μg/m³),Mass concentration (μg/m³),Mass concentration (μg/m³)
DateTimeUTC,F1_M11,P_M11,Q1_M11,Q2_M11,T1_M11,T2_M11,T3_M11,T4_M11,T5_M11,U1_M11,ZSPAN_M11,X2_M11,X0_M11,X1_M11
2021-09-12 14:00:00,,0831.7,4.99,0.00,29.9,29.0,00.0,38.9,31.7,21.4,0000.7,0007.42,0014.57,0005.96
2021-09-12 14:01:00,,0831.7,5.01,0.00,29.9,29.0,00.0,39.0,31.7,21.3,0000.4,0007.42,0015.63,0005.94
2021-09-12 14:02:00,,0831.7,5.00,0.00,30.0,29.1,00.0,39.0,31.8,21.3,0000.5,0007.36,0016.13,0005.89
2021-09-12 14:03:00,,0831.7,5.00,0.00,30.0,29.1,00.0,39.0,31.8,21.4,0000.5,0007.39,0017.01,0005.84
2021-09-12 14:04:00,,0831.7,5.01,0.00,30.0,29.2,00.0,39.0,31.9,21.5,0000.4,0007.39,0017.55,0005.81
2021-09-12 14:05:00,,0831.7,5.00,0.00,30.1,29.2,00.0,39.0,31.9,21.5,0000.9,0007.34,0017.93,0005.78
2021-09-12 14:06:00,,0831.8,4.99,0.00,30.1,29.3,00.0,39.1,31.9,21.4,0001.2,0007.29,0018.22,0005.75
2021-09-12 14:07:00,,0831.7,5.00,0.00,30.1,29.3,00.0,39.1,32.0,21.5,0001.2,0007.26,0018.27,0005.73
2021-09-12 14:08:00,,0831.7,5.01,0.00,30.1,29.3,00.0,39.1,32.0,21.3,0001.4,0007.21,0017.91,0005.69
2021-09-12 14:09:00,,0831.7,4.99,0.00,30.2,29.4,00.0,39.1,32.0,21.2,0001.5,0007.19,0017.56,0005.68
2021-09-12 14:10:00,,0831.7,4.99,0.00,30.1,28.3,00.0,39.1,31.7,21.4,0001.8,0007.19,0017.55,0005.65
2021-09-12 14:11:00,,0831.7,4.99,0.00,29.9,26.0,00.0,39.1,31.1,21.6,0001.9,0007.13,0017.14,0005.62
2021-09-12 14:12:00,,0831.7,5.01,0.00,29.8,25.5,00.0,39.1,30.9,21.9,0002.3,0007.11,0016.06,0005.60
2021-09-12 14:13:00,,0831.6,5.00,0.00,29.7,26.0,00.0,39.0,31.0,22.2,0002.5,0007.14,0015.58,0005.60
2021-09-12 14:14:00,,0831.7,5.00,0.00,29.6,26.5,00.0,38.9,31.0,22.4,0002.6,0007.06,0015.17,0005.60
2021-09-12 14:15:00,,0831.7,5.00,0.00,29.6,26.9,00.0,38.9,31.1,22.3,0003.0,0006.96,0014.62,0005.59
2021-09-12 14:16:00,,0831.7,4.98,0.00,29.6,27.3,00.0,38.8,31.2,22.2,0003.0,0006.96,0014.87,0005.58
2021-09-12 14:17:00,,0831.7,5.00,0.00,29.6,27.7,00.0,38.8,31.2,22.4,0002.9,0006.98,0015.07,0005.58
2021-09-12 14:18:00,,0831.7,5.01,0.00,29.6,27.9,00.0,38.8,31.3,22.5,0002.9,0007.00,0014.65,0005.57
2021-09-12 14:19:00,,0831.7,4.98,0.00,29.6,28.1,00.0,38.8,31.3,22.4,0002.8,0007.04,0014.63,0005.56
2021-09-12 14:20:00,,0831.7,5.01,0.00,29.7,28.3,00.0,38.8,31.4,22.4,0002.9,0007.07,0014.68,0005.55
2021-09-12 14:21:00,,0831.7,5.00,0.00,29.7,28.4,00.0,38.8,31.4,22.3,0002.7,0007.03,0015.25,0005.55
2021-09-12 14:22:00,,0831.8,5.00,0.00,29.7,28.6,00.0,38.8,31.5,22.1,0002.9,0007.01,0015.31,0005.57
2021-09-12 14:23:00,,0831.9,5.01,0.00,29.7,28.7,00.0,38.8,31.5,22.3,0002.9,0007.03,0015.26,0005.59
2021-09-12 14:24:00,,0831.8,4.98,0.00,29.8,28.8,00.0,38.8,31.6,22.6,0003.2,0007.03,0015.15,0005.60
2021-09-12 14:25:00,,0831.8,5.00,0.00,29.8,28.8,00.0,38.8,31.6,22.8,0003.2,0007.03,0015.53,0005.62
2021-09-12 14:26:00,,0831.8,5.00,0.00,29.8,28.9,00.0,38.9,31.7,22.6,0003.0,0007.11,0016.40,0005.64
2021-09-12 14:27:00,,0831.8,5.01,0.00,29.9,29.0,00.0,38.9,31.7,22.6,0002.9,0007.19,0015.89,0005.68
2021-09-12 14:28:00,,0831.8,4.99,0.00,29.9,29.0,00.0,38.9,31.7,22.6,0002.4,0007.21,0015.22,0005.70
2021-09-12 14:29:00,,0831.8,5.00,0.00,29.9,29.1,00.0,38.9,31.8,22.6,0002.2,0007.26,0015.32,0005.73
2021-09-12 14:30:00,,0831.7,5.01,0.00,30.0,29.1,00.0,38.9,31.8,22.7,0001.9,0007.28,0015.92,0005.75
2021-09-12 14:31:00,,0831.7,4.99,0.00,30.0,29.2,00.0,39.0,31.8,22.5,0002.1,0007.23,0015.84,0005.75
2021-09-12 14:32:00,,0831.7,5.00,0.00,30.0,29.2,00.0,39.0,31.9,22.5,0002.2,0007.17,0014.94,0005.75
2021-09-12 14:33:00,,0831.7,4.99,0.00,30.1,29.3,00.0,39.0,31.9,22.6,0001.8,0007.21,0015.05,0005.75
2021-09-12 14:34:00,,0831.7,4.99,0.00,30.1,29.3,00.0,39.0,31.9,22.7,0001.8,0007.19,0015.79,0005.76
2021-09-12 14:35:00,,0831.7,4.99,0.00,30.1,29.3,00.0,39.1,32.0,22.4,0001.6,0007.17,0016.59,0005.75
2021-09-12 14:36:00,,0831.7,5.01,0.00,30.2,29.4,00.0,39.1,32.0,22.4,0001.1,0007.19,0016.76,0005.77
2021-09-12 14:37:00,,0831.7,4.99,0.00,30.2,29.4,00.0,39.1,32.0,22.6,0001.3,0007.16,0017.14,0005.77
2021-09-12 14:38:00,,0831.7,5.00,0.00,30.2,29.4,00.0,39.1,32.0,22.7,0001.4,0007.16,0017.28,0005.76
2021-09-12 14:39:00,,0831.7,5.00,0.00,30.2,29.1,00.0,39.2,32.0,23.0,0001.6,0007.18,0017.36,0005.77
2021-09-12 14:40:00,,0831.7,5.00,0.00,30.2,27.3,00.0,39.1,31.6,22.8,0001.7,0007.12,0017.69,0005.75
2021-09-12 14:41:00,,0831.8,5.00,0.00,30.0,27.0,00.0,39.1,31.4,23.1,0001.8,0007.06,0017.09,0005.75
2021-09-12 14:42:00,,0831.7,4.99,0.00,30.0,27.3,00.0,39.1,31.5,23.2,0001.7,0007.08,0017.17,0005.76
2021-09-12 14:43:00,,0831.7,4.99,0.00,29.9,27.6,00.0,39.1,31.5,23.6,0001.2,0007.09,0018.68,0005.74
2021-09-12 14:44:00,,0831.7,5.01,0.00,29.9,28.0,00.0,39.1,31.5,23.6,0001.8,0007.05,0018.43,0005.72
2021-09-12 14:45:00,,0831.7,4.99,0.00,29.9,28.2,00.0,39.0,31.6,23.2,0001.5,0007.07,0017.87,0005.68
2021-09-12 14:46:00,,0831.7,5.00,0.00,29.9,28.4,00.0,39.0,31.7,23.3,0001.5,0007.06,0016.93,0005.66
2021-09-12 14:47:00,,0831.7,5.00,0.00,30.0,28.6,00.0,39.0,31.7,23.2,0001.7,0007.05,0016.55,0005.62
2021-09-12 14:48:00,,0831.7,4.99,0.00,30.0,28.8,00.0,39.1,31.8,23.0,0001.6,0006.97,0015.22,0005.57
2021-09-12 14:49:00,,0831.7,5.01,0.00,30.0,28.9,00.0,39.1,31.8,23.1,0001.5,0006.81,0014.79,0005.50
2021-09-12 14:50:00,,0831.7,5.00,0.00,30.1,29.0,00.0,39.1,31.9,22.9,0001.5,0006.74,0014.69,0005.45
2021-09-12 14:51:00,,0831.7,5.01,0.00,30.1,29.1,00.0,39.1,31.9,22.9,0001.2,0006.71,0014.65,0005.41
2021-09-12 14:52:00,,0831.8,5.00,0.00,30.1,29.2,00.0,39.1,31.9,23.3,0000.9,0006.73,0015.37,0005.37
2021-09-12 14:53:00,,0831.8,4.99,0.00,30.2,29.3,00.0,39.1,32.0,23.3,0000.8,0006.73,0015.26,0005.33
2021-09-12 14:54:00,,0831.9,5.00,0.00,30.2,29.3,00.0,39.1,32.0,23.3,0001.0,0006.72,0013.71,0005.34
2021-09-12 14:55:00,,0831.9,5.01,0.00,30.2,29.4,00.0,39.2,32.0,23.1,0000.5,0006.68,0013.48,0005.31
2021-09-12 14:56:00,,0832.0,5.00,0.00,30.3,29.1,00.0,39.2,32.0,23.1,0000.7,0006.67,0013.65,0005.30
2021-09-12 14:57:00,,0832.0,5.00,0.00,30.2,27.3,00.0,39.2,31.5,23.4,0000.9,0006.67,0013.69,0005.28
2021-09-12 14:58:00,,0832.0,5.00,0.00,30.0,26.1,00.0,39.1,31.2,23.8,0000.7,0006.66,0013.63,0005.27
2021-09-12 14:59:00,,0832.0,5.02,0.00,29.9,26.3,00.0,39.1,31.2,24.1,0000.6,0006.72,0013.75,0005.28
